D7023 Weather Reports


Display with metric or nautical units.
time (UTC)temp
F
wind
direction
speed
MPH
gust
MPH
rain 1hr
in
rain 24hr
in
rain mn
in
humidity
%
barometer
mb
20260504130110 69 205 1.0 5.0 0.00 0.00 0.00 86 1020.6
20260504110505 65 165 0.0 3.0 0.00 0.00 0.00 92 1020.4
20260504100406 63 183 0.0 1.0 0.00 0.00 0.00 94 1019.9
20260504081754 63 172 0.0 0.0 0.00 0.00 0.00 94 1018.8
20260504081251 63 172 0.0 2.0 0.00 0.00 0.00 94 1018.8
20260504080757 63 172 0.0 2.0 0.00 0.00 0.00 94 1018.8
20260504080248 63 172 0.0 1.0 0.00 0.00 0.00 94 1018.8
20260504050431 62 181 0.0 0.0 0.00 0.00 0.00 95 1020.1
20260504045930 62 181 0.0 2.0 0.00 0.00 0.00 95 1020.2
20260504045644 62 181 1.0 2.0 0.00 0.00 0.00 95 1020.3
20260504044931 62 181 0.0 2.0 0.00 0.00 0.00 95 1020.3
20260504044641 62 200 0.0 2.0 0.00 0.00 0.00 95 1020.4
20260504044135 62 200 0.0 2.0 0.00 0.00 0.00 95 1020.4
20260504043358 62 200 1.0 2.0 0.00 0.00 0.00 95 1020.5
20260504043337 62 200 0.0 2.0 0.00 0.00 0.00 95 1020.7
20260504042354 62 130 1.0 2.0 0.00 0.00 0.00 95 1020.8
20260504041855 62 130 1.0 3.0 0.00 0.00 0.00 95 1020.7
20260504041351 62 130 0.0 3.0 0.00 0.00 0.00 95 1020.7
20260504040852 62 110 0.0 0.0 0.00 0.00 0.00 95 1020.9
20260504040612 62 110 0.0 0.0 0.00 0.00 0.00 95 1021.0
20260504035849 62 110 0.0 0.0 0.00 0.00 0.00 95 1020.9
20260504035346 62 110 0.0 0.0 0.00 0.00 0.00 95 1021.0
20260504034846 62 110 0.0 0.0 0.00 0.00 0.00 96 1020.9
20260504034829 62 110 0.0 0.0 0.00 0.00 0.00 96 1021.0
20260504033841 62 110 0.0 0.0 0.00 0.00 0.00 95 1020.9
20260504033339 62 110 0.0 0.0 0.00 0.00 0.00 96 1021.0
20260504033105 62 110 0.0 0.0 0.00 0.00 0.00 96 1021.2
20260504032336 62 110 0.0 0.0 0.00 0.00 0.00 96 1021.3
20260504032053 62 110 0.0 0.0 0.00 0.00 0.00 96 1021.3
20260504031554 62 110 0.0 0.0 0.00 0.00 0.00 96 1021.3
20260504030831 62 110 0.0 0.0 0.00 0.00 0.00 95 1021.4
20260504030319 62 110 0.0 0.0 0.00 0.00 0.00 95 1021.5
20260504030044 62 110 0.0 0.0 0.00 0.00 0.00 95 1021.5
20260504025311 62 110 0.0 0.0 0.00 0.00 0.00 95 1021.5
20260504024807 62 110 0.0 0.0 0.00 0.00 0.00 95 1021.7
20260504024308 62 110 0.0 0.0 0.00 0.00 0.00 95 1021.7
20260504024029 62 110 0.0 0.0 0.00 0.00 0.00 95 1021.7
20260504023308 62 110 0.0 0.0 0.00 0.00 0.00 95 1021.6
20260504022805 62 110 0.0 0.0 0.00 0.00 0.00 94 1021.6
20260504022304 62 110 0.0 0.0 0.00 0.00 0.00 94 1021.6
20260504021759 62 110 0.0 0.0 0.00 0.00 0.00 94 1021.8
20260504021258 62 110 0.0 0.0 0.00 0.00 0.00 94 1021.8
20260504021241 62 110 0.0 0.0 0.00 0.00 0.00 93 1021.8
20260504020255 62 110 0.0 0.0 0.00 0.00 0.00 93 1021.9
20260504015748 62 110 0.0 0.0 0.00 0.00 0.00 93 1022.0
20260504015246 62 110 0.0 0.0 0.00 0.00 0.00 93 1022.1
20260504014744 62 110 0.0 0.0 0.00 0.00 0.00 93 1022.1
20260504014244 62 110 0.0 0.0 0.00 0.00 0.00 93 1022.1
20260504013723 62 110 0.0 0.0 0.00 0.00 0.00 93 1022.1
20260504013224 62 110 0.0 0.0 0.00 0.00 0.00 93 1022.1
20260504012710 62 110 0.0 0.0 0.00 0.00 0.00 92 1022.1
20260504012209 62 110 0.0 0.0 0.00 0.00 0.00 92 1022.1
20260504011702 62 110 0.0 0.0 0.00 0.00 0.00 92 1022.1
20260504011201 62 110 0.0 0.0 0.00 0.00 0.00 92 1022.1
20260504010702 62 110 0.0 0.0 0.00 0.00 0.00 91 1022.0
20260504010159 63 110 0.0 0.0 0.00 0.00 0.00 91 1022.1
20260504005655 63 110 0.0 0.0 0.00 0.00 0.00 91 1022.1
20260504005153 63 110 0.0 0.0 0.00 0.00 0.00 91 1022.1
20260504004650 63 110 0.0 0.0 0.00 0.00 0.00 90 1022.2
20260504004148 63 110 0.0 0.0 0.00 0.00 0.00 90 1022.1
20260504003641 63 110 0.0 0.0 0.00 0.00 0.00 89 1022.2
20260504003141 63 110 0.0 0.0 0.00 0.00 0.00 90 1022.1
20260504002905 63 110 0.0 0.0 0.00 0.00 0.00 91 1022.1
20260504002357 63 110 0.0 0.0 0.00 0.00 0.00 90 1022.0
20260504001611 63 110 0.0 0.0 0.00 0.00 0.00 90 1022.0
20260504001332 63 110 0.0 0.0 0.00 0.00 0.00 90 1022.0
20260504000607 63 110 0.0 0.0 0.00 0.00 0.00 90 1022.1
20260504000106 63 110 0.0 0.0 0.00 0.00 0.00 89 1022.0
20260503235601 63 110 0.0 0.0 0.00 0.00 0.00 90 1022.0
20260503235059 63 110 0.0 0.0 0.00 0.00 0.00 90 1022.0
20260503234556 63 110 0.0 0.0 0.00 0.00 0.00 89 1022.1
20260503234053 63 110 0.0 0.0 0.00 0.00 0.00 90 1022.1
20260503233550 63 110 0.0 0.0 0.00 0.00 0.00 90 1022.1
20260503233050 63 110 0.0 0.0 0.00 0.00 0.00 90 1022.1
20260503232546 63 110 0.0 0.0 0.00 0.00 0.00 90 1022.1
20260503232046 63 110 0.0 0.0 0.00 0.00 0.00 90 1022.1
20260503231803 63 110 0.0 2.0 0.00 0.00 0.00 90 1022.1
20260503231042 63 110 0.0 2.0 0.00 0.00 0.00 90 1022.0
20260503230537 63 110 0.0 1.0 0.00 0.00 0.00 90 1022.0
20260503230040 63 110 0.0 1.0 0.00 0.00 0.00 90 1021.9
20260503225514 64 110 0.0 0.0 0.00 0.00 0.00 90 1021.9
20260503225012 64 110 0.0 0.0 0.00 0.00 0.00 89 1021.9
20260503224511 64 110 0.0 1.0 0.00 0.00 0.00 88 1021.9
20260503224229 64 110 0.0 1.0 0.00 0.00 0.00 88 1021.7
20260503223506 64 110 0.0 1.0 0.00 0.00 0.00 87 1021.6
20260503223004 64 110 0.0 2.0 0.00 0.00 0.00 87 1021.7
20260503222504 64 110 0.0 2.0 0.00 0.00 0.00 86 1021.6
20260503221958 64 110 0.0 2.0 0.00 0.00 0.00 86 1021.6
20260503221457 64 110 1.0 2.0 0.00 0.00 0.00 85 1021.6
20260503220957 64 110 1.0 2.0 0.00 0.00 0.00 85 1021.7
20260503220451 64 110 0.0 2.0 0.00 0.00 0.00 85 1021.7
20260503215949 64 110 0.0 0.0 0.00 0.00 0.00 85 1021.7
20260503215446 65 110 0.0 1.0 0.00 0.00 0.00 85 1021.8
20260503214947 65 110 0.0 2.0 0.00 0.00 0.00 84 1021.7
20260503214434 65 110 0.0 2.0 0.00 0.00 0.00 84 1021.6
20260503214158 65 110 0.0 2.0 0.00 0.00 0.00 84 1021.6
20260503213653 65 110 0.0 2.0 0.00 0.00 0.00 83 1021.6
20260503212932 65 110 1.0 3.0 0.00 0.00 0.00 83 1021.6
20260503212430 65 110 1.0 3.0 0.00 0.00 0.00 82 1021.5
20260503211929 65 110 1.0 4.0 0.00 0.00 0.00 82 1021.5
20260503211426 65 110 2.0 4.0 0.00 0.00 0.00 82 1021.5
20260503210926 65 127 2.0 4.0 0.00 0.00 0.00 82 1021.6
20260503210423 65 127 2.0 4.0 0.00 0.00 0.00 82 1021.5
20260503205922 66 123 2.0 4.0 0.00 0.00 0.00 80 1021.5
20260503205418 66 133 2.0 3.0 0.00 0.00 0.00 80 1021.5
20260503204923 67 123 0.0 3.0 0.00 0.00 0.00 80 1021.5
20260503204356 68 123 0.0 0.0 0.00 0.00 0.00 79 1021.4
20260503203828 68 123 0.0 0.0 0.00 0.00 0.00 77 1021.4
20260503203300 69 123 0.0 0.0 0.00 0.00 0.00 77 1021.3
20260503202735 69 123 0.0 0.0 0.00 0.00 0.00 76 1021.3
20260503202211 69 123 0.0 0.0 0.00 0.00 0.00 74 1021.2
20260503201652 70 123 0.0 0.0 0.00 0.00 0.00 71 1021.3
20260503201150 70 123 0.0 0.0 0.00 0.00 0.00 72 1021.3
20260503200653 70 123 0.0 2.0 0.00 0.00 0.00 71 1021.2
20260503200150 70 123 0.0 2.0 0.00 0.00 0.00 74 1021.3
20260503195645 70 123 0.0 2.0 0.00 0.00 0.00 71 1021.3
20260503195147 70 123 1.0 2.0 0.00 0.00 0.00 70 1021.3
20260503194646 70 123 1.0 3.0 0.00 0.00 0.00 71 1021.3
20260503194144 71 123 1.0 3.0 0.00 0.00 0.00 69 1021.2
20260503193646 71 122 0.0 2.0 0.00 0.00 0.00 68 1021.2
20260503193140 71 122 0.0 1.0 0.00 0.00 0.00 69 1021.2
20260503192637 71 122 0.0 2.0 0.00 0.00 0.00 67 1021.2
20260503192137 71 122 1.0 3.0 0.00 0.00 0.00 67 1021.2
20260503191642 71 122 1.0 3.0 0.00 0.00 0.00 64 1021.2
20260503191116 71 122 1.0 4.0 0.00 0.00 0.00 63 1021.2
20260503190552 71 122 1.0 4.0 0.00 0.00 0.00 60 1021.2
20260503190249 71 122 1.0 3.0 0.00 0.00 0.00 58 1021.2
20260503185508 71 122 1.0 3.0 0.00 0.00 0.00 60 1021.2
20260503185012 71 122 2.0 4.0 0.00 0.00 0.00 62 1021.2
20260503184452 71 122 2.0 4.0 0.00 0.00 0.00 61 1021.3
20260503183955 71 122 1.0 4.0 0.00 0.00 0.00 59 1021.3
20260503183434 72 227 0.0 3.0 0.00 0.00 0.00 59 1021.3
20260503183156 72 139 0.0 2.0 0.00 0.00 0.00 58 1021.3
20260503182411 71 156 2.0 5.0 0.00 0.00 0.00 59 1021.4
20260503181842 71 147 2.0 5.0 0.00 0.00 0.00 58 1021.4
20260503181321 72 123 2.0 4.0 0.00 0.00 0.00 59 1021.3
20260503180826 72 231 1.0 4.0 0.00 0.00 0.00 59 1021.3
20260503180320 72 233 2.0 4.0 0.00 0.00 0.00 58 1021.4
20260503180042 72 225 2.0 4.0 0.00 0.00 0.00 59 1021.4
20260503175322 72 189 1.0 3.0 0.00 0.00 0.00 59 1021.3
20260503174815 72 147 2.0 5.0 0.00 0.00 0.00 59 1021.3
20260503174313 72 212 2.0 5.0 0.00 0.00 0.00 57 1021.3
20260503173809 72 218 2.0 5.0 0.00 0.00 0.00 59 1021.4
20260503173310 71 155 2.0 6.0 0.00 0.00 0.00 59 1021.4
20260503172806 71 194 2.0 6.0 0.00 0.00 0.00 60 1021.3
20260503172305 71 163 3.0 9.0 0.00 0.00 0.00 59 1021.3
20260503171810 71 241 3.0 9.0 0.00 0.00 0.00 60 1021.4
20260503171306 71 151 2.0 8.0 0.00 0.00 0.00 59 1021.5
20260503170806 71 133 3.0 8.0 0.00 0.00 0.00 57 1021.5
20260503170526 71 143 3.0 8.0 0.00 0.00 0.00 58 1021.5
20260503150743 69 237 5.0 12.0 0.00 0.00 0.00 63 1022.9
20260503150238 69 232 5.0 12.0 0.00 0.00 0.00 62 1022.9